This is the latest recevied weather packets stored in our database for station/object DB0NLS-15. If no packets are shown the sender has not sent any weather packets the latest 10 day(s).
| Time | Temp. | Humidity | Pressure | Rain* | Wind** | Luminosity | Snow |
|---|---|---|---|---|---|---|---|
| 1777639541 | 21.11° C | 36% | 1016 hPa | 0 mm | - | - | - |
| 1777638939 | 21.11° C | 35% | 1016.1 hPa | 0 mm | - | - | - |
| 1777638336 | 21.11° C | 36% | 1016.3 hPa | 0 mm | - | - | - |
| 1777637733 | 21.11° C | 35% | 1016.4 hPa | 0 mm | - | - | - |
| 1777637130 | 21.11° C | 37% | 1016.3 hPa | 0 mm | - | - | - |
| 1777636528 | 20.56° C | 37% | 1016.5 hPa | 0 mm | - | - | - |
| 1777635925 | 20° C | 38% | 1016.6 hPa | 0 mm | - | - | - |
| 1777635323 | 20.56° C | 38% | 1016.6 hPa | 0 mm | - | - | - |
| 1777634720 | 20.56° C | 39% | 1016.8 hPa | 0 mm | - | - | - |
| 1777634117 | 20° C | 40% | 1016.9 hPa | 0 mm | - | - | - |
| 1777633515 | 20.56° C | 40% | 1016.9 hPa | 0 mm | - | - | - |
| 1777632972 | 19.44° C | 40% | 1017 hPa | 0 mm | - | - | - |
| 1777632370 | 19.44° C | 40% | 1017.1 hPa | 0 mm | - | - | - |
| 1777631767 | 18.89° C | 42% | 1017.3 hPa | 0 mm | - | - | - |
| 1777631164 | 19.44° C | 41% | 1017.3 hPa | 0 mm | - | - | - |
| 1777630562 | 18.89° C | 42% | 1017.4 hPa | 0 mm | - | - | - |
| 1777629959 | 18.33° C | 44% | 1017.4 hPa | 0 mm | - | - | - |
| 1777629357 | 18.89° C | 44% | 1017.5 hPa | 0 mm | - | - | - |
| 1777628754 | 17.78° C | 46% | 1017.7 hPa | 0 mm | - | - | - |
| 1777628151 | 17.78° C | 45% | 1017.8 hPa | 0 mm | - | - | - |
| 1777627549 | 17.78° C | 46% | 1017.9 hPa | 0 mm | - | - | - |
| 1777626946 | 18.33° C | 44% | 1017.9 hPa | 0 mm | - | - | - |
| 1777626343 | 17.22° C | 46% | 1018 hPa | 0 mm | - | - | - |
| 1777625741 | 17.22° C | 45% | 1017.9 hPa | 0 mm | - | - | - |
| 1777625138 | 16.67° C | 46% | 1018 hPa | 0 mm | - | - | - |
* Rain latest hour (hover to see other rain measurements)
** Current wind speed in m/s (hover to see current wind gust speed)